sat.trackr.live / text

‹ back to catalog

XINGYUN-2 02

NORAD 45603 · 2020-028B

PAYLOAD ACTIVE UNKNOWN

§ Identity

Operator
Country
PRC
Launch date
2020-05-12
Launch site
JSC
Launch vehicle
Mass (kg)
RCS (m²)

External: N2YO · Heavens-Above · Gunter

§ Orbital elements

Epoch: 2026-05-25T03:33:59.275872Z

Period
95.27 min
Inclination
97.5080°
Eccentricity
0.0011072
Mean motion
15.11430282 rev/d
Perigee alt
524.2 km
Apogee alt
539.5 km
Semi-major
6,910.0 km
B*
1.4415e-4
RAAN
151.5472°
Arg perigee
0.2469°
Mean anomaly
359.8765°
Rev number
33,135

§ Raw data

XINGYUN-2 021 45603U 20028B   26145.14860273  .00002375  00000+0  14415-3 0  99932 45603  97.5080 151.5472 0011072   0.2469 359.8765 15.11430282331351

JSON: /api/v1/satellites/45603 · /tle

For live sub-satellite position, see the globe view (requires WebGL).

§ Visibility from observer

Set your observer location to see the next 7 days of passes ≥ 10°. The values pass through the URL so the page stays shareable.

No JS? Fill the form by hand. The geolocation button needs JavaScript.

§ Radio — SatNOGS DB

ModeDescriptionDownlinkUplink
FM S-band telemetry 1.522 GHz

1 transmitter · refreshed weekly from db.satnogs.org